Regional Weather Roundup
Issued by NWS

Home | Current Version | Previous Version | Graphics & Text | Print | Product List | Glossary On
Versions: 1 2 3 4 5 6 7 8 9 10 11 12 13 14 15 16 17 18 19 20 21 22 23 24 25 26 27 28 29 30 31 32 33 34 35 36 37 38 39 40 41 42 43 44 45 46 47 48 49 50
000
ASUS43 KLSX 202307
RWRMO

WEATHER SUMMARY FOR MISSOURI
NATIONAL WEATHER SERVICE SPRINGFIELD MO
600 PM CDT SUN AUG 20 2017

NOTE: "FAIR" INDICATES FEW OR NO CLOUDS BELOW 12,000 FEET WITH NO
       SIGNIFICANT WEATHER AND/OR OBSTRUCTIONS TO VISIBILITY.
       CURRENT SKY AND/OR WEATHER CONDITIONS ARE NOT AVAILABLE FOR
       CHILLICOTHE AND FARMINGTON.

MOZ001>031-035>038-043-044-053-054-210000-
...NORTHERN AND WESTERN MISSOURI...

CITY           SKY/WX    TMP DP  RH WIND       PRES   REMARKS
KANSAS CTY INT PTSUNNY   85  73  67 E16       29.98F HX  91
KANSAS C DTWN  SUNNY     90  74  59 E10       29.96F HX  99
LEE`S SUMMIT   MOSUNNY   85  74  69 E7        29.99F HX  92
ST JOSEPH      MOSUNNY   86  71  60 S13       29.96F HX  91
CHILLICOTHE      N/A     85  73  67 S10       29.96F HX  91
KIRKSVILLE     PTSUNNY   80  67  64 N12       30.01R

$$
MOZ066>068-077>081-088>096-101>105-210000-
...SOUTHWEST MISSOURI...

CITY           SKY/WX    TMP DP  RH WIND       PRES   REMARKS
SPRINGFIELD    MOSUNNY   88  76  67 SE8       30.03S HX  99
JOPLIN         MOSUNNY   93  73  52 SW12      29.99S HX 102
BRANSON        PTSUNNY   90  73  58 E13       30.05S HX  98

$$
MOZ032>034-039>042-045>050-055>058-069>072-210000-
...CENTRAL MISSOURI...

CITY           SKY/WX    TMP DP  RH WIND       PRES   REMARKS
COLUMBIA       MOSUNNY   87  73  62 NW5       30.03S HX  94
JEFFERSON CITY MOSUNNY   89  76  65 W7        29.99F HX 100
ROLLA          MOSUNNY   86  74  67 S6        30.05F HX  94
SEDALIA        CLOUDY    89  77  67 E3        30.02F HX 101
WHITEMAN AFB   PTSUNNY   88  81  79 SE6       29.98F THUNDER HX 105
WARRENSBURG    MOSUNNY   86  73  66 E6        29.97F HX  93
OSAGE BEACH    MOSUNNY   85  75  72 SE3       30.02F HX  93

$$
MOZ051-052-059>065-210000-
...EAST CENTRAL MISSOURI...

CITY           SKY/WX    TMP DP  RH WIND       PRES   REMARKS
ST LOUIS INTL  MOSUNNY   90  71  53 S10       30.00F HX  96
SPIRIT OF STL  SUNNY     91  74  57 SW7       29.99S HX 100
ST CHARLES     SUNNY     89  72  56 S9        29.98S HX  96

$$
MOZ072>076-082>087-097>100-106>115-210000-
...SOUTH CENTRAL AND SOUTHEAST MISSOURI...

CITY           SKY/WX    TMP DP  RH WIND       PRES   REMARKS
CAPE GIRARDEAU CLOUDY    81  67  62 CALM      30.00R
FARMINGTON     SUNNY     84  74  71 SW6       30.05F HX  91
POPLAR BLUFF   SUNNY     85  73  67 SW3       30.01F HX  91
WEST PLAINS    MOSUNNY   85  69  58 S5        30.07F

$$



USA.gov is the U.S. government's official web portal to all federal, state and local government web resources and services.